Inverness, FL

7:50 PM EDT on July 20, 2017 (GMT -0400)
Inverness

Weather History for KINF - February, 2014

Change the Weather History Date:

Tuesday, February 25, 2014

  Actual Average (KBKV) Record (KBKV)
Temperature  
Mean Temperature 66 °F -  
Max Temperature 78 °F 72 °F 84 °F (2001)
Min Temperature 53 °F 48 °F 37 °F (1998)
Growing Degree Days 16 (Base 50)    
Moisture  
Dew Point 58 °F    
Average Humidity 81    
Maximum Humidity 100    
Minimum Humidity 44    
Precipitation  
Precipitation 0.00 in - - ()
Sea Level Pressure  
Sea Level Pressure 30.03 in    
Wind  
Wind Speed 0 mph (NW)    
Max Wind Speed 6 mph    
Max Gust Speed -    
Visibility 6 miles    
Events Fog    
Averages and records for this station are not official NWS values.
T = Trace of Precipitation, MM = Missing Value Source: NWS Daily Summary

Daily Weather History Graph

Daily Weather History Graph

Search for Another Location

Airport or City:

Trip Planner

Search our weather history database for the weather conditions in past years. The results will help you decide how hot, cold, wet, or windy it might be!

Date:

Astronomy

Feb. 25, 2014 Rise Set
Actual Time 6:58 AM EST 6:26 PM EST
Civil Twilight 6:34 AM EST 6:50 PM EST
Nautical Twilight 6:07 AM EST 7:17 PM EST
Astronomical Twilight 5:39 AM EST 7:45 PM EST
Moon 3:39 AM EST (2/25) 2:43 PM EST (2/25)
Length of Visible Light 12h 15m
Length of Day
11h 28m
Waning Crescent, 18% of the Moon is Illuminated
Feb 25
Waning Crescent
Mar 1
New
Mar 8
First Quarter
Mar 16
Full
Mar 23
Last Quarter

Hourly Weather History & Observations

Time (EST) Temp. Dew Point Humidity Pressure Visibility Wind Dir Wind Speed Gust Speed Precip Events Conditions
12:15 AM 60.8 °F 60.8 °F 100% 30.09 in 5.0 mi Calm Calm - N/A   Mostly Cloudy
12:35 AM 60.8 °F 60.8 °F 100% 30.08 in 5.0 mi Calm Calm - N/A   Overcast
12:55 AM 62.6 °F 60.8 °F 94% 30.07 in 5.0 mi Calm Calm - N/A   Overcast
1:15 AM 60.8 °F 60.8 °F 100% 30.06 in 5.0 mi Calm Calm - N/A   Scattered Clouds
1:35 AM 60.8 °F 60.8 °F 100% 30.06 in 3.0 mi Calm Calm - N/A   Clear
1:55 AM 60.8 °F 60.8 °F 100% 30.06 in 0.8 mi Calm Calm - N/A   Mostly Cloudy
2:15 AM 59.0 °F 59.0 °F 100% 30.05 in 1.2 mi Calm Calm - N/A   Mostly Cloudy
2:35 AM 59.0 °F 59.0 °F 100% 30.05 in 1.0 mi Calm Calm - N/A   Mostly Cloudy
2:55 AM 59.0 °F 59.0 °F 100% 30.04 in 4.0 mi Calm Calm - N/A   Mostly Cloudy
3:15 AM 60.8 °F 59.0 °F 94% 30.04 in 0.8 mi Calm Calm - N/A   Overcast
3:35 AM 59.0 °F 59.0 °F 100% 30.04 in 0.2 mi Calm Calm - N/A Fog Fog
3:55 AM 59.0 °F 57.2 °F 94% 30.04 in 0.2 mi Calm Calm - N/A Fog Fog
4:15 AM 57.2 °F 57.2 °F 100% 30.03 in 0.2 mi Calm Calm - N/A Fog Fog
4:35 AM 57.2 °F 57.2 °F 100% 30.03 in 0.8 mi Calm Calm - N/A   Overcast
4:55 AM 57.2 °F 57.2 °F 100% 30.04 in 1.0 mi Calm Calm - N/A   Overcast
5:15 AM 57.2 °F 55.4 °F 94% 30.04 in 2.0 mi Calm Calm - N/A   Mostly Cloudy
5:35 AM 57.2 °F 55.4 °F 94% 30.05 in 3.0 mi Calm Calm - N/A   Mostly Cloudy
5:55 AM 57.2 °F 55.4 °F 94% 30.05 in 2.5 mi Calm Calm - N/A   Scattered Clouds
6:15 AM 55.4 °F 55.4 °F 100% 30.05 in 2.5 mi Calm Calm - N/A   Clear
6:35 AM 57.2 °F 55.4 °F 94% 30.06 in 3.0 mi Calm Calm - N/A   Clear
6:55 AM 55.4 °F 55.4 °F 100% 30.06 in 3.0 mi Calm Calm - N/A   Clear
7:15 AM 57.2 °F 55.4 °F 94% 30.06 in 5.0 mi Calm Calm - N/A   Scattered Clouds
7:35 AM 57.2 °F 57.2 °F 100% 30.06 in 4.0 mi Calm Calm - N/A   Scattered Clouds
7:55 AM 59.0 °F 57.2 °F 94% 30.06 in 4.0 mi Calm Calm - N/A   Clear
8:15 AM 59.0 °F 59.0 °F 100% 30.08 in 5.0 mi Calm Calm - N/A   Clear
8:35 AM 59.0 °F 59.0 °F 100% 30.08 in 4.0 mi Calm Calm - N/A   Clear
8:55 AM 60.8 °F 60.8 °F 100% 30.09 in 5.0 mi Calm Calm - N/A   Clear
9:15 AM 62.6 °F 60.8 °F 94% 30.09 in 7.0 mi Calm Calm - N/A   Clear
9:35 AM 62.6 °F 62.6 °F 100% 30.09 in 10.0 mi Calm Calm - N/A   Clear
9:55 AM 66.2 °F 60.8 °F 83% 30.09 in 10.0 mi Calm Calm - N/A   Clear
10:15 AM 69.8 °F 60.8 °F 73% 30.09 in 10.0 mi Calm Calm - N/A   Clear
10:35 AM 71.6 °F 60.8 °F 69% 30.08 in 10.0 mi NNE 3.5 mph - N/A   Scattered Clouds
10:55 AM 71.6 °F 60.8 °F 69% 30.08 in 10.0 mi Calm Calm - N/A   Scattered Clouds
11:15 AM 73.4 °F 60.8 °F 65% 30.08 in 10.0 mi Calm Calm - N/A   Mostly Cloudy
11:35 AM 73.4 °F 60.8 °F 65% 30.07 in 7.0 mi NNE 5.8 mph - N/A   Overcast
11:55 AM 73.4 °F 60.8 °F 65% 30.06 in 10.0 mi NW 3.5 mph - N/A   Mostly Cloudy
12:15 PM 73.4 °F 59.0 °F 61% 30.06 in 7.0 mi Calm Calm - N/A   Overcast
12:35 PM 75.2 °F 59.0 °F 57% 30.04 in 7.0 mi Calm Calm - N/A   Overcast
12:55 PM 77.0 °F 55.4 °F 47% 30.03 in 7.0 mi Calm Calm - N/A   Mostly Cloudy
1:15 PM 78.8 °F 57.2 °F 47% 30.02 in 7.0 mi Calm Calm - N/A   Mostly Cloudy
1:35 PM 78.8 °F 55.4 °F 44% 30.01 in 5.0 mi WSW 4.6 mph - N/A   Haze
1:55 PM 77.0 °F 55.4 °F 47% 30.00 in 5.0 mi NNW 4.6 mph - N/A   Haze
2:15 PM 78.8 °F 55.4 °F 44% 29.98 in 7.0 mi NNW 5.8 mph - N/A   Scattered Clouds
2:35 PM 78.8 °F 55.4 °F 44% 29.98 in 7.0 mi Calm Calm - N/A   Scattered Clouds
2:55 PM 77.0 °F 55.4 °F 47% 29.98 in 7.0 mi NW 5.8 mph - N/A   Scattered Clouds
3:15 PM 78.8 °F 55.4 °F 44% 29.97 in 7.0 mi Calm Calm - N/A   Clear
3:35 PM 78.8 °F 55.4 °F 44% 29.97 in 7.0 mi NNW 4.6 mph - N/A   Clear
3:55 PM 77.0 °F 55.4 °F 47% 29.97 in 5.0 mi WNW 3.5 mph - N/A   Haze
4:15 PM 77.0 °F 55.4 °F 47% 29.98 in 7.0 mi WNW 5.8 mph - N/A   Clear
4:35 PM 77.0 °F 57.2 °F 50% 29.97 in 7.0 mi Calm Calm - N/A   Clear
4:55 PM 77.0 °F 57.2 °F 50% 29.97 in 7.0 mi WNW 3.5 mph - N/A   Clear
5:15 PM 75.2 °F 57.2 °F 53% 29.96 in 7.0 mi Calm Calm - N/A   Clear
5:35 PM 73.4 °F 57.2 °F 57% 29.96 in 10.0 mi Calm Calm - N/A   Clear
5:55 PM 71.6 °F 57.2 °F 60% 29.97 in 10.0 mi Calm Calm - N/A   Clear
6:15 PM 71.6 °F 59.0 °F 64% 29.98 in 10.0 mi Calm Calm - N/A   Clear
6:35 PM 69.8 °F 59.0 °F 68% 29.98 in 10.0 mi Calm Calm - N/A   Clear
6:55 PM 68.0 °F 59.0 °F 73% 29.99 in 10.0 mi Calm Calm - N/A   Clear
7:15 PM 66.2 °F 59.0 °F 78% 29.99 in 10.0 mi Calm Calm - N/A   Clear
7:35 PM 64.4 °F 59.0 °F 83% 30.00 in 10.0 mi Calm Calm - N/A   Clear
7:55 PM 64.4 °F 59.0 °F 83% 30.00 in 10.0 mi Calm Calm - N/A   Clear
8:15 PM 62.6 °F 59.0 °F 88% 30.00 in 10.0 mi Calm Calm - N/A   Clear
8:35 PM 62.6 °F 59.0 °F 88% 30.01 in 10.0 mi Calm Calm - N/A   Clear
8:55 PM 62.6 °F 59.0 °F 88% 30.01 in 10.0 mi Calm Calm - N/A   Clear
9:15 PM 60.8 °F 59.0 °F 94% 30.01 in 10.0 mi Calm Calm - N/A   Clear
9:35 PM 59.0 °F 59.0 °F 100% 30.01 in 10.0 mi Calm Calm - N/A   Clear
9:55 PM 59.0 °F 57.2 °F 94% 30.00 in 3.0 mi Calm Calm - N/A   Clear
10:15 PM 57.2 °F 55.4 °F 94% 30.01 in 7.0 mi Calm Calm - N/A   Clear
10:35 PM 57.2 °F 55.4 °F 94% 30.01 in 7.0 mi Calm Calm - N/A   Clear
10:55 PM 55.4 °F 55.4 °F 100% 30.01 in 0.8 mi Calm Calm - N/A   Mist
11:15 PM 55.4 °F 53.6 °F 94% 30.00 in 0.8 mi Calm Calm - N/A   Mostly Cloudy
11:35 PM 53.6 °F 53.6 °F 100% 30.00 in 4.0 mi Calm Calm - N/A   Scattered Clouds
11:55 PM 53.6 °F 53.6 °F 100% 29.98 in 0.2 mi Calm Calm - N/A Fog Fog